Location: Summit Observatory
(39.5293°N, 75.7290°W)
Time: 06:51:41
(UTC-04:00)

Amateur Radio Satellites - All Passes

Search period start: 25 July 2017 06:21
Search period end: 26 July 2017 06:21
Location: Summit Observatory, 39.5293°N, 75.7290°W

Satellite Date Start Highest point End Downlink Frequencies (MHz)
Time Altitude Azimuth
XW-2D 25 Jul 06:23:17 06:26:03 19° 94° (E) 06:28:49 145.860 - 145.880
XW-2B 25 Jul 06:33:03 06:36:10 24° 96° (E) 06:39:16 145.730 - 145.750
SO-50 25 Jul 06:36:31 06:41:00 64° 119° (ESE) 06:45:29 436.795
CUTE-I 25 Jul 06:42:46 06:47:29 31° 96° (E) 06:52:09 437.470
HO-68 25 Jul 06:44:25 06:46:13 11° 87° (E) 06:48:02 435.675
STRAND 1 25 Jul 06:44:37 06:48:49 26° 66° (ENE) 06:53:01 437.568
XW-2C 25 Jul 06:50:02 06:53:37 40° 99° (E) 06:57:10 145.795 - 145.815
NUDT-PHONESAT 25 Jul 06:58:02 07:01:28 36° 98° (E) 07:04:53 437.300
YUBILEINY 25 Jul 07:00:11 07:08:52 70° 267° (W) 07:17:29 435.215
CUTE 1.7 + AOD 2 25 Jul 07:11:26 07:13:02 12° 91° (E) 07:14:37 437.475
DOVE 4 25 Jul 07:11:59 07:17:00 45° 289° (WNW) 07:21:49 437.250
KAITUO 1B 25 Jul 07:12:12 07:15:53 60° 101° (E) 07:19:33 145.475/437.950
LilacSat-2 25 Jul 07:13:13 07:17:01 90° 296° (WNW) 07:20:49 437.200
AO-7 25 Jul 07:22:54 07:26:40 14° 314° (NW) 07:30:25 .
XW-2F 25 Jul 07:27:49 07:31:33 65° 284° (WNW) 07:35:16 145.980 - 146.000
XW-2D 25 Jul 07:57:03 08:00:12 25° 289° (WNW) 08:03:21 145.860 - 145.880
AAUSAT CUBESAT 2 25 Jul 08:06:39 08:08:54 14° 92° (E) 08:11:09 437.432
XW-2B 25 Jul 08:07:22 08:10:13 21° 291° (WNW) 08:13:03 145.730 - 145.750
XW-2A 25 Jul 08:15:48 08:18:54 36° 98° (E) 08:22:00 145.665 - 145.685
SO-50 25 Jul 08:18:56 08:21:52 17° 317° (NW) 08:24:49 436.795
CUTE-I 25 Jul 08:22:44 08:27:27 32° 293° (WNW) 08:32:09 437.470
STRAND 1 25 Jul 08:23:03 08:27:47 37° 262° (W) 08:32:33 437.568
CUBEBUG 2 25 Jul 08:25:07 08:29:09 41° 98° (E) 08:33:04 437.445
XW-2C 25 Jul 08:25:39 08:27:26 13° 294° (WNW) 08:29:11 145.795 - 145.815
HO-68 25 Jul 08:27:50 08:35:00 75° 104° (ESE) 08:42:08 435.675
NUDT-PHONESAT 25 Jul 08:33:09 08:35:01 14° 293° (WNW) 08:36:53 437.300
AO-73 25 Jul 08:41:35 08:44:18 17° 93° (E) 08:47:00 145.935
CUTE 1.7 + AOD 2 25 Jul 08:45:01 08:49:10 54° 286° (WNW) 08:53:19 437.475
TIGRISAT 25 Jul 08:54:32 08:56:14 12° 63° (ENE) 08:57:55 435.000
SEEDS 25 Jul 08:57:05 09:01:16 64° 284° (WNW) 09:05:27 437.485
YUBILEINY 25 Jul 09:01:40 09:03:53 11° 287° (WNW) 09:06:06 435.215
FO-29 25 Jul 09:05:00 09:12:09 46° 68° (ENE) 09:19:33 435.910
UWE-3 25 Jul 09:22:55 09:27:06 72° 284° (WNW) 09:31:13 435.000/436.395/437.385
ZACube-1 25 Jul 09:36:24 09:40:34 87° 99° (E) 09:44:43 437.345
PRISM 25 Jul 09:39:43 09:43:16 29° 70° (ENE) 09:46:51 437.425
AAUSAT CUBESAT 2 25 Jul 09:40:35 09:44:34 44° 287° (WNW) 09:48:31 437.432
UNISAT 6 25 Jul 09:43:46 09:48:08 42° 72° (ENE) 09:52:26 437.425
XW-2A 25 Jul 09:50:18 09:51:17 11° 293° (WNW) 09:52:15 145.665 - 145.685
Oscar 11 25 Jul 10:02:19 10:06:37 72° 285° (WNW) 10:10:55 .
CUBEBUG 2 25 Jul 10:02:49 10:05:24 16° 295° (WNW) 10:07:57 437.445
AO-73 25 Jul 10:16:53 10:20:39 35° 288° (WNW) 10:24:25 145.935
HO-68 25 Jul 10:16:54 10:21:58 21° 302° (WNW) 10:27:03 435.675
TIGRISAT 25 Jul 10:27:40 10:32:19 72° 258° (WSW) 10:36:54 435.000
M-CUBED/EXP-1 PRIME 25 Jul 10:35:22 10:38:57 87° 72° (ENE) 10:42:54 437.505
DELFI C3 25 Jul 10:41:36 10:45:37 80° 100° (E) 10:49:37 145.870
FO-29 25 Jul 10:50:13 10:57:09 38° 265° (W) 11:04:23 435.910
AIST 2D 25 Jul 10:54:26 10:57:13 23° 71° (ENE) 11:00:01 435.315
EO-88 25 Jul 11:06:29 11:10:07 78° 283° (WNW) 11:13:45 145.990 - 145.960
LO-87 25 Jul 11:11:49 11:13:25 12° 92° (E) 11:15:01 145.935 - 145.965
PRISM 25 Jul 11:15:27 11:18:32 21° 265° (W) 11:21:39 437.425
NO-84 25 Jul 11:17:26 11:20:23 73° 135° (SE) 11:23:35 435.350 FM
UNISAT 6 25 Jul 11:21:45 11:24:58 18° 267° (W) 11:28:09 437.425
DUCHIFAT 1 25 Jul 11:38:46 11:42:31 31° 71° (ENE) 11:46:17 145.980
POLYITAN 1 25 Jul 11:41:16 11:45:19 42° 72° (ENE) 11:49:21 437.675
QB50P2 25 Jul 11:54:06 11:58:20 67° 75° (ENE) 12:02:35 145.880/145.840
NANOSAT C BR1 25 Jul 12:05:55 12:10:10 75° 75° (ENE) 12:14:25 145.865
EO-79 25 Jul 12:06:01 12:10:18 84° 76° (ENE) 12:14:35 145.935-145.965
BUGSAT 1 25 Jul 12:07:26 12:10:28 19° 67° (ENE) 12:13:29 437.445
AO-85 25 Jul 12:10:18 12:13:26 22° 113° (ESE) 12:16:32 145.980
AIST 2D 25 Jul 12:27:55 12:30:22 18° 266° (W) 12:32:49 435.315
Oscar 19 25 Jul 12:42:35 12:46:29 23° 65° (ENE) 12:50:25 437.125/150
LO-87 25 Jul 12:43:41 12:47:00 35° 287° (WNW) 12:50:16 145.935 - 145.965
SPROUT 25 Jul 12:44:06 12:47:35 24° 95° (E) 12:51:01 437.525
ESTCUBE 1 25 Jul 12:46:11 12:50:43 77° 285° (WNW) 12:55:14 437.505/2401.250
BEESAT 3 25 Jul 12:48:42 12:52:37 61° 118° (ESE) 12:56:35 437.485
NO-84 25 Jul 12:56:21 12:58:15 15° 335° (NNW) 13:00:15 435.350 FM
Gurwin Techsat 1B 25 Jul 13:10:16 13:14:40 27° 66° (ENE) 13:19:04 435.225
DUCHIFAT 1 25 Jul 13:15:02 13:18:12 20° 266° (W) 13:21:23 145.980
POLYITAN 1 25 Jul 13:18:43 13:21:16 15° 268° (W) 13:23:49 437.675
PCSat 25 Jul 13:23:02 13:27:02 20° 47° (NE) 13:30:59 145.827
BEESAT 2 25 Jul 13:29:11 13:33:03 54° 118° (ESE) 13:37:01 435.950
VELOX 1 25 Jul 13:30:37 13:35:05 69° 102° (ESE) 13:39:31 145.980
DX 1 25 Jul 13:35:50 13:39:18 22° 95° (E) 13:42:44 434.975-435.025
BUGSAT 1 25 Jul 13:41:41 13:45:33 34° 262° (W) 13:49:27 437.445
50 SAT 25 Jul 13:43:41 13:46:55 37° 99° (E) 13:50:07 437.505
AO-85 25 Jul 13:50:10 13:53:40 29° 309° (NW) 13:57:08 145.980
RS-15 25 Jul 14:11:23 14:18:45 19° 97° (E) 14:26:08 29.354- 29.394
UKube-1 25 Jul 14:17:16 14:21:24 42° 99° (E) 14:25:30 .
SPROUT 25 Jul 14:19:49 14:23:25 27° 291° (WNW) 14:26:59 437.525
Oscar 19 25 Jul 14:20:42 14:25:31 42° 262° (W) 14:30:23 437.125/150
BEESAT 3 25 Jul 14:28:17 14:30:34 15° 316° (NW) 14:32:52 437.485
AO-7 25 Jul 14:33:21 14:40:48 38° 60° (ENE) 14:48:17 .
ITAMSAT 1 25 Jul 14:34:58 14:38:44 20° 63° (ENE) 14:42:29 435.822/435.867
Gurwin Techsat 1B 25 Jul 14:49:31 14:54:24 37° 262° (W) 14:59:20 435.225
PCSat 25 Jul 15:05:30 15:10:53 64° 245° (WSW) 15:16:13 145.827
O/OREOS (USA 219) 25 Jul 15:07:03 15:11:11 37° 105° (ESE) 15:15:19 437.305
SO-50 25 Jul 15:08:33 15:12:54 44° 53° (NE) 15:17:17 436.795
BEESAT 2 25 Jul 15:08:39 15:11:08 16° 315° (NW) 15:13:38 435.950
VELOX 1 25 Jul 15:09:22 15:10:55 12° 298° (WNW) 15:12:29 145.980
DX 1 25 Jul 15:11:36 15:15:28 31° 291° (WNW) 15:19:19 434.975-435.025
50 SAT 25 Jul 15:18:01 15:19:16 12° 294° (WNW) 15:20:30 437.505
MOZHAYETS 4 25 Jul 15:20:24 15:23:03 15° 92° (E) 15:25:42
UKube-1 25 Jul 15:54:16 15:57:04 17° 295° (WNW) 15:59:51 .
BEESAT 25 Jul 15:58:48 16:03:28 53° 100° (E) 16:08:05 436.000
ITUPSAT 1 25 Jul 16:12:15 16:17:01 72° 103° (ESE) 16:21:45 437.325
ITAMSAT 1 25 Jul 16:12:43 16:17:47 50° 260° (W) 16:22:53 435.822/435.867
NO-84 25 Jul 16:15:36 16:16:09 10° 19° (NNE) 16:16:43 435.350 FM
RS-15 25 Jul 16:17:02 16:29:10 80° 117° (ESE) 16:41:32 29.354- 29.394
AO-7 25 Jul 16:25:18 16:33:18 50° 258° (WSW) 16:41:23 .
DOVE 4 25 Jul 16:39:43 16:43:10 19° 64° (ENE) 16:46:43 437.250
O/OREOS (USA 219) 25 Jul 16:47:20 16:50:41 20° 302° (WNW) 16:54:04 437.305
SO-50 25 Jul 16:49:46 16:53:02 20° 249° (WSW) 16:56:21 436.795
MOZHAYETS 4 25 Jul 16:56:04 17:00:27 48° 287° (WNW) 17:04:50
XW-2B 25 Jul 17:15:19 17:16:30 11° 65° (ENE) 17:17:42 145.730 - 145.750
XW-2C 25 Jul 17:31:09 17:33:43 18° 68° (ENE) 17:36:18 145.795 - 145.815
CUBESAT XI-V 25 Jul 17:31:34 17:36:15 76° 102° (ESE) 17:40:56 437.345
KKS-1 25 Jul 17:33:45 17:37:59 40° 99° (E) 17:42:10 437.445
NUDT-PHONESAT 25 Jul 17:37:22 17:39:34 15° 68° (ENE) 17:41:46 437.300
BEESAT 25 Jul 17:37:51 17:40:48 17° 296° (WNW) 17:43:43 436.000
NO-84 25 Jul 17:50:56 17:54:30 36° 37° (NE) 17:58:19 435.350 FM
KAITUO 1B 25 Jul 17:51:37 17:54:35 23° 70° (ENE) 17:57:33 145.475/437.950
ITUPSAT 1 25 Jul 17:52:14 17:54:13 13° 299° (WNW) 17:56:12 437.325
LilacSat-2 25 Jul 17:54:04 17:57:32 36° 73° (ENE) 18:01:01 437.200
STARS 25 Jul 18:02:17 18:06:17 33° 98° (E) 18:10:15 437.465
CUTE-I 25 Jul 18:03:27 18:08:33 47° 71° (ENE) 18:13:41 437.470
YUBILEINY 25 Jul 18:04:43 18:11:54 29° 83° (E) 18:19:04 435.215
XW-2F 25 Jul 18:07:26 18:11:01 47° 74° (ENE) 18:14:37 145.980 - 146.000
DOVE 4 25 Jul 18:15:40 18:20:22 49° 262° (W) 18:25:21 437.250
RS-15 25 Jul 18:31:58 18:43:01 37° 322° (NW) 18:54:10 29.354- 29.394
XW-2D 25 Jul 18:36:26 18:40:08 63° 259° (W) 18:43:53 145.860 - 145.880
XW-2B 25 Jul 18:46:37 18:50:15 47° 260° (W) 18:53:53 145.730 - 145.750
XW-2A 25 Jul 18:47:57 18:49:07 11° 67° (ENE) 18:50:15 145.665 - 145.685
HO-68 25 Jul 18:55:07 19:01:59 51° 68° (ENE) 19:08:52 435.675
XW-2C 25 Jul 19:04:27 19:07:43 28° 264° (W) 19:10:59 145.795 - 145.815
NUDT-PHONESAT 25 Jul 19:09:52 19:13:11 32° 263° (W) 19:16:30 437.300
KKS-1 25 Jul 19:11:07 19:14:13 19° 295° (WNW) 19:17:18 437.445
CUBESAT XI-V 25 Jul 19:11:28 19:12:58 11° 298° (WNW) 19:14:28 437.345
CUBEBUG 2 25 Jul 19:21:43 19:25:55 33° 71° (ENE) 19:30:02 437.445
KAITUO 1B 25 Jul 19:25:44 19:28:31 20° 265° (W) 19:31:19 145.475/437.950
NO-84 25 Jul 19:28:28 19:31:57 29° 232° (SW) 19:35:37 435.350 FM
LilacSat-2 25 Jul 19:29:58 19:31:57 14° 268° (W) 19:33:55 437.200
CUTE 1.7 + AOD 2 25 Jul 19:36:10 19:40:21 90° 333° (NNW) 19:44:34 437.475
AO-73 25 Jul 19:36:53 19:39:04 14° 65° (ENE) 19:41:14 145.935
STARS 25 Jul 19:39:04 19:42:24 21° 293° (WNW) 19:45:42 437.465
CUTE-I 25 Jul 19:44:46 19:48:48 21° 267° (W) 19:52:50 437.470
XW-2F 25 Jul 19:44:53 19:45:23 10° 269° (W) 19:45:53 145.980 - 146.000
SEEDS 25 Jul 19:47:18 19:51:25 75° 76° (ENE) 19:55:35 437.485
YUBILEINY 25 Jul 19:59:24 20:08:05 59° 282° (WNW) 20:16:47 435.215
ISS 25 Jul 20:13:20 20:16:03 25° 134° (SE) 20:18:47 437.550
UWE-3 25 Jul 20:18:04 20:22:39 79° 77° (ENE) 20:27:08 435.000/436.395/437.385
XW-2A 25 Jul 20:18:21 20:21:29 36° 261° (W) 20:24:39 145.665 - 145.685
Tancredo 1 25 Jul 20:26:56 20:29:51 71° 323° (NW) 20:32:47 437.200
AAUSAT CUBESAT 2 25 Jul 20:29:03 20:33:09 79° 260° (W) 20:37:17 437.432
ZACube-1 25 Jul 20:30:38 20:35:00 59° 75° (ENE) 20:39:18 437.345
STRAND 1 25 Jul 20:33:53 20:39:01 81° 102° (ESE) 20:44:07 437.568
AO-85 25 Jul 20:41:20 20:44:20 19° 47° (NE) 20:47:26 145.980
HO-68 25 Jul 20:43:48 20:49:55 30° 265° (W) 20:56:02 435.675
RS-15 25 Jul 20:52:18 21:00:44 20° 356° (N) 21:09:03 29.354- 29.394
nSIGHT-1 25 Jul 20:54:20 20:57:33 73° 139° (SE) 21:00:46 .
Oscar 11 25 Jul 20:55:41 20:59:58 75° 76° (ENE) 21:04:16 .
CUBEBUG 2 25 Jul 20:58:46 21:02:31 23° 265° (W) 21:06:13 437.445
BEESAT 3 25 Jul 21:06:31 21:09:58 27° 50° (NE) 21:13:21 437.485
AO-73 25 Jul 21:10:30 21:14:51 55° 260° (W) 21:19:07 145.935
DELFI C3 25 Jul 21:25:52 21:29:29 37° 72° (ENE) 21:33:09 145.870
EO-88 25 Jul 21:43:09 21:46:28 35° 73° (ENE) 21:49:49 145.990 - 145.960
BEESAT 2 25 Jul 21:47:51 21:51:17 26° 50° (NE) 21:54:41 435.950
ISS 25 Jul 21:49:24 21:52:25 34° 330° (NNW) 21:55:26 437.550
FO-29 25 Jul 22:01:37 22:08:09 40° 95° (E) 22:13:56 435.910
Tancredo 1 25 Jul 22:04:07 22:05:41 13° 341° (NNW) 22:07:15 437.200
YUBILEINY 25 Jul 22:05:50 22:07:02 10° 304° (NW) 22:08:14 435.215
ZACube-1 25 Jul 22:09:56 22:11:35 12° 269° (W) 22:13:13 437.345
STRAND 1 25 Jul 22:15:24 22:17:29 12° 300° (WNW) 22:19:32 437.568
TIGRISAT 25 Jul 22:20:46 22:24:15 24° 95° (E) 22:27:40 435.000
AO-85 25 Jul 22:20:48 22:24:55 49° 243° (WSW) 22:29:20 145.980
nSIGHT-1 25 Jul 22:31:53 22:34:15 18° 338° (NNW) 22:36:37 .
BEESAT 3 25 Jul 22:44:07 22:47:27 25° 247° (WSW) 22:50:43 437.485
PRISM 25 Jul 22:56:14 23:00:21 54° 100° (E) 23:04:25 437.425
DELFI C3 25 Jul 23:02:08 23:04:24 15° 268° (W) 23:06:40 145.870
RS-15 25 Jul 23:08:28 23:18:56 31° 32° (NNE) 23:28:56 29.354- 29.394
UNISAT 6 25 Jul 23:12:40 23:17:00 78° 284° (WNW) 23:21:15 437.425
LO-87 25 Jul 23:18:00 23:21:36 72° 76° (ENE) 23:25:15 145.935 - 145.965
EO-88 25 Jul 23:18:31 23:20:16 13° 268° (W) 23:22:01 145.990 - 145.960
BEESAT 2 25 Jul 23:25:30 23:29:00 28° 247° (WSW) 23:32:26 435.950
ISS 25 Jul 23:28:23 23:29:39 12° 349° (N) 23:30:55 437.550
SPROUT 25 Jul 23:37:02 23:39:52 17° 66° (ENE) 23:42:43 437.525
QB50P2 25 Jul 23:42:09 23:43:27 11° 91° (E) 23:44:45 145.880/145.840
ESTCUBE 1 25 Jul 23:44:23 23:48:51 86° 78° (ENE) 23:53:21 437.505/2401.250
FO-29 25 Jul 23:46:44 23:53:03 35° 295° (WNW) 23:58:42 435.910
M-CUBED/EXP-1 PRIME 25 Jul 23:48:02 23:52:42 77° 108° (ESE) 23:57:20 437.505
AIST 2D 25 Jul 23:52:42 23:55:50 31° 97° (E) 23:58:58 435.315
NANOSAT C BR1 25 Jul 23:53:00 23:54:44 12° 91° (E) 23:56:28 145.865
EO-79 25 Jul 23:53:04 23:55:18 14° 92° (E) 23:57:31 145.935-145.965
TIGRISAT 25 Jul 23:57:15 00:00:54 27° 291° (WNW) 00:04:28 435.000
50 SAT 26 Jul 00:15:43 00:17:10 12° 66° (ENE) 00:18:38 437.505
VELOX 1 26 Jul 00:26:36 00:30:53 53° 73° (ENE) 00:35:13 145.980
DX 1 26 Jul 00:30:53 00:33:52 18° 66° (ENE) 00:36:53 434.975-435.025
PRISM 26 Jul 00:33:16 00:35:08 13° 296° (WNW) 00:37:01 437.425
DUCHIFAT 1 26 Jul 00:58:29 01:02:39 65° 102° (ESE) 01:06:46 145.980
POLYITAN 1 26 Jul 01:02:15 01:06:28 88° 284° (WNW) 01:10:39 437.675
JUGNU 26 Jul 01:05:24 01:06:35 11° 180° (S) 01:07:46 437.505
ISS 26 Jul 01:06:13 01:07:17 11° 9° (N) 01:08:22 437.550
UKube-1 26 Jul 01:10:45 01:14:35 32° 70° (ENE) 01:18:25 .
SPROUT 26 Jul 01:11:24 01:15:26 40° 262° (W) 01:19:31 437.525
QB50P2 26 Jul 01:15:26 01:19:34 56° 286° (WNW) 01:23:40 145.880/145.840
Tancredo 1 26 Jul 01:16:39 01:18:33 16° 22° (NNE) 01:20:27 437.200
O/OREOS (USA 219) 26 Jul 01:17:29 01:21:57 63° 67° (ENE) 01:26:25 437.305
RS-15 26 Jul 01:21:13 01:33:24 86° 59° (ENE) 01:44:52 29.354- 29.394
BUGSAT 1 26 Jul 01:24:08 01:27:51 33° 97° (E) 01:31:30 437.445
M-CUBED/EXP-1 PRIME 26 Jul 01:24:26 01:26:29 13° 302° (WNW) 01:28:31 437.505
NANOSAT C BR1 26 Jul 01:26:39 01:30:44 50° 286° (WNW) 01:34:46 145.865
AIST 2D 26 Jul 01:26:52 01:28:45 14° 292° (WNW) 01:30:38 435.315
EO-79 26 Jul 01:27:16 01:31:17 44° 287° (WNW) 01:35:16 145.935-145.965
Gurwin Techsat 1B 26 Jul 01:30:11 01:30:48 10° 89° (E) 01:31:25 435.225
50 SAT 26 Jul 01:46:27 01:49:33 34° 262° (W) 01:52:42 437.505
nSIGHT-1 26 Jul 01:47:10 01:49:11 15° 19° (NNE) 01:51:12 .
VELOX 1 26 Jul 02:05:31 02:07:37 13° 268° (W) 02:09:46 145.980
DX 1 26 Jul 02:05:40 02:09:44 39° 261° (W) 02:13:51 434.975-435.025
MOZHAYETS 4 26 Jul 02:22:00 02:24:24 14° 64° (ENE) 02:26:47
Oscar 19 26 Jul 02:32:38 02:37:48 72° 102° (ESE) 02:42:58 437.125/150
DUCHIFAT 1 26 Jul 02:36:45 02:37:44 11° 297° (WNW) 02:38:43 145.980
ISS 26 Jul 02:41:39 02:44:35 30° 29° (NNE) 02:47:31 437.550
UKube-1 26 Jul 02:47:21 02:50:37 21° 265° (W) 02:53:55 .
Tancredo 1 26 Jul 02:51:19 02:54:16 81° 217° (SW) 02:57:13 437.200
O/OREOS (USA 219) 26 Jul 02:59:26 03:00:44 11° 263° (W) 03:02:03 437.305
BUGSAT 1 26 Jul 03:00:07 03:02:57 18° 293° (WNW) 03:05:45 437.445
BEESAT 26 Jul 03:04:01 03:08:40 55° 73° (ENE) 03:13:21 436.000
Gurwin Techsat 1B 26 Jul 03:06:03 03:11:24 88° 282° (WNW) 03:16:43 435.225
ITUPSAT 1 26 Jul 03:17:46 03:22:33 76° 75° (ENE) 03:27:20 437.325
nSIGHT-1 26 Jul 03:22:49 03:26:02 72° 35° (NE) 03:29:16 .
RS-15 26 Jul 03:35:38 03:44:12 24° 260° (W) 03:52:31 29.354- 29.394
MOZHAYETS 4 26 Jul 03:56:33 04:01:03 57° 260° (W) 04:05:34
SRMSAT 26 Jul 03:56:42 03:57:37 10° 181° (S) 03:58:33 437.500
PCSat 26 Jul 04:04:44 04:08:22 19° 105° (ESE) 04:12:02 145.827
Oscar 19 26 Jul 04:13:49 04:16:30 14° 299° (WNW) 04:19:10 437.125/150
YUBILEINY 26 Jul 04:17:17 04:20:42 13° 58° (ENE) 04:24:05 435.215
ISS 26 Jul 04:18:08 04:21:01 30° 226° (SW) 04:23:55 437.550
ITAMSAT 1 26 Jul 04:26:16 04:31:26 62° 102° (ESE) 04:36:33 435.822/435.867
AO-7 26 Jul 04:27:27 04:35:43 61° 103° (ESE) 04:43:55 .
KKS-1 26 Jul 04:30:46 04:34:47 34° 70° (ENE) 04:38:49 437.445
CUBESAT XI-V 26 Jul 04:33:38 04:38:10 65° 75° (ENE) 04:42:45 437.345
BEESAT 26 Jul 04:44:08 04:46:46 15° 268° (W) 04:49:24 436.000
Gurwin Techsat 1B 26 Jul 04:48:48 04:50:30 12° 301° (WNW) 04:52:13 435.225
STARS 26 Jul 04:57:56 05:01:41 28° 69° (ENE) 05:05:27 437.465
ITUPSAT 1 26 Jul 05:00:01 05:00:52 10° 270° (W) 05:01:44 437.325
nSIGHT-1 26 Jul 05:01:08 05:02:01 11° 232° (SW) 05:02:53 .
SO-50 26 Jul 05:23:24 05:26:16 17° 110° (ESE) 05:29:07 436.795
PCSat 26 Jul 05:45:56 05:51:16 58° 302° (WNW) 05:56:38 145.827
ITAMSAT 1 26 Jul 06:07:09 06:10:21 17° 298° (WNW) 06:13:34 435.822/435.867
KKS-1 26 Jul 06:07:58 06:11:22 21° 265° (W) 06:14:49 437.445
XW-2D 26 Jul 06:11:05 06:13:02 14° 92° (E) 06:14:58 145.860 - 145.880
STRAND 1 26 Jul 06:13:02 06:15:21 13° 60° (ENE) 06:17:39 437.568
CUBESAT XI-V 26 Jul 06:14:34 06:15:58 11° 270° (W) 06:17:23 437.345
